TimeCDT,TemperatureF,Dew PointF,Humidity,Sea Level PressureIn,VisibilityMPH,Wind Direction,Wind SpeedMPH,Gust SpeedMPH,PrecipitationIn,Events,Conditions,WindDirDegrees,DateUTC
12:15 AM,47.3,33.4,59,30.12,10.0,SSE,18.4,-,N/A,,Clear,160,2013-04-26 05:15:00
12:35 AM,46.9,33.8,60,30.12,10.0,SSE,18.4,23.0,N/A,,Clear,150,2013-04-26 05:35:00
12:55 AM,46.8,33.8,61,30.12,10.0,SSE,17.3,-,N/A,,Clear,160,2013-04-26 05:55:00
1:15 AM,46.0,34.0,63,30.12,10.0,SSE,13.8,-,N/A,,Clear,150,2013-04-26 06:15:00
1:35 AM,45.9,34.2,64,30.12,10.0,SSE,13.8,-,N/A,,Clear,160,2013-04-26 06:35:00
1:55 AM,46.4,34.7,64,30.11,10.0,SSE,15.0,-,N/A,,Clear,160,2013-04-26 06:55:00
2:15 AM,47.3,34.9,62,30.11,10.0,SSE,12.7,-,N/A,,Clear,160,2013-04-26 07:15:00
2:35 AM,47.3,35.4,63,30.12,10.0,South,13.8,-,N/A,,Clear,170,2013-04-26 07:35:00
2:55 AM,47.7,35.6,63,30.11,10.0,South,13.8,-,N/A,,Clear,180,2013-04-26 07:55:00
3:15 AM,47.3,36.0,65,30.11,10.0,South,16.1,-,N/A,,Clear,180,2013-04-26 08:15:00
3:35 AM,47.3,36.1,65,30.10,10.0,South,17.3,-,N/A,,Clear,180,2013-04-26 08:35:00
3:55 AM,47.3,36.5,66,30.10,10.0,South,17.3,-,N/A,,Clear,170,2013-04-26 08:55:00
4:15 AM,47.3,36.7,67,30.10,10.0,South,16.1,-,N/A,,Clear,170,2013-04-26 09:15:00
4:35 AM,46.9,36.9,68,30.09,10.0,South,16.1,-,N/A,,Clear,170,2013-04-26 09:35:00
4:55 AM,47.7,36.9,66,30.09,10.0,South,15.0,-,N/A,,Clear,170,2013-04-26 09:55:00
5:15 AM,47.5,37.0,67,30.09,10.0,South,15.0,-,N/A,,Clear,170,2013-04-26 10:15:00
5:35 AM,47.5,36.7,66,30.09,10.0,South,13.8,19.6,N/A,,Clear,170,2013-04-26 10:35:00
5:55 AM,46.4,36.5,68,30.09,10.0,SSE,11.5,-,N/A,,Clear,160,2013-04-26 10:55:00
6:15 AM,46.4,36.5,68,30.09,10.0,SSE,12.7,-,N/A,,Clear,160,2013-04-26 11:15:00
6:55 AM,46.4,36.1,67,30.09,10.0,SSE,12.7,-,N/A,,Scattered Clouds,160,2013-04-26 11:55:00
7:15 AM,46.8,36.5,67,30.09,10.0,SSE,12.7,-,N/A,,Scattered Clouds,160,2013-04-26 12:15:00
7:35 AM,49.1,37.2,64,30.10,10.0,South,15.0,-,N/A,,Clear,170,2013-04-26 12:35:00
7:55 AM,51.1,37.6,60,30.10,10.0,South,13.8,-,N/A,,Clear,180,2013-04-26 12:55:00
8:15 AM,53.1,37.9,57,30.10,10.0,South,19.6,-,N/A,,Clear,190,2013-04-26 13:15:00
8:35 AM,54.9,38.1,53,30.09,10.0,South,25.3,-,N/A,,Clear,190,2013-04-26 13:35:00
8:55 AM,56.3,38.7,52,30.09,10.0,SSW,21.9,32.2,N/A,,Clear,200,2013-04-26 13:55:00
9:15 AM,57.2,38.7,50,30.09,10.0,SSW,26.5,33.4,N/A,,Clear,200,2013-04-26 14:15:00
9:35 AM,58.1,39.0,49,30.09,10.0,South,28.8,34.5,N/A,,Clear,190,2013-04-26 14:35:00
9:55 AM,59.9,39.7,47,30.09,10.0,SSW,23.0,31.1,N/A,,Clear,200,2013-04-26 14:55:00
10:15 AM,61.7,39.7,44,30.10,10.0,SSW,21.9,28.8,N/A,,Clear,200,2013-04-26 15:15:00
10:35 AM,63.1,40.3,43,30.10,10.0,SSW,20.7,32.2,N/A,,Clear,210,2013-04-26 15:35:00
10:55 AM,64.2,40.1,41,30.11,10.0,SSW,29.9,35.7,N/A,,Clear,210,2013-04-26 15:55:00
11:15 AM,65.1,41.2,42,30.12,10.0,SSW,26.5,33.4,N/A,,Clear,210,2013-04-26 16:15:00
11:35 AM,65.7,41.7,42,30.12,10.0,SW,23.0,31.1,N/A,,Clear,220,2013-04-26 16:35:00
11:55 AM,66.7,41.7,40,30.12,10.0,SSW,25.3,32.2,N/A,,Clear,210,2013-04-26 16:55:00
12:15 PM,67.3,41.9,40,30.12,10.0,SW,21.9,31.1,N/A,,Clear,230,2013-04-26 17:15:00
12:35 PM,68.4,42.4,39,30.12,10.0,SW,23.0,28.8,N/A,,Scattered Clouds,220,2013-04-26 17:35:00
12:55 PM,68.0,42.8,40,30.12,10.0,SW,23.0,29.9,N/A,,Mostly Cloudy,230,2013-04-26 17:55:00
1:15 PM,67.5,43.0,41,30.12,10.0,SW,20.7,25.3,N/A,,Mostly Cloudy,230,2013-04-26 18:15:00
1:35 PM,67.1,42.8,41,30.12,10.0,SW,18.4,26.5,N/A,,Mostly Cloudy,220,2013-04-26 18:35:00
1:55 PM,66.7,43.5,43,30.12,10.0,SSW,23.0,29.9,N/A,,Overcast,210,2013-04-26 18:55:00
2:15 PM,67.8,43.7,42,30.12,10.0,SSW,21.9,27.6,N/A,,Overcast,210,2013-04-26 19:15:00
2:35 PM,67.1,43.5,42,30.12,10.0,SSW,19.6,26.5,N/A,,Overcast,210,2013-04-26 19:35:00
2:55 PM,68.0,43.7,41,30.12,10.0,SW,16.1,-,N/A,,Mostly Cloudy,220,2013-04-26 19:55:00
3:15 PM,67.3,44.1,43,30.12,10.0,SSW,15.0,20.7,N/A,,Overcast,200,2013-04-26 20:15:00
3:35 PM,67.1,44.6,44,30.12,10.0,SSW,17.3,23.0,N/A,,Overcast,200,2013-04-26 20:35:00
3:55 PM,67.1,44.4,44,30.12,10.0,South,15.0,21.9,N/A,,Overcast,190,2013-04-26 20:55:00
4:15 PM,67.1,44.4,44,30.12,10.0,South,11.5,18.4,N/A,,Overcast,190,2013-04-26 21:15:00
4:35 PM,66.4,44.6,45,30.11,10.0,South,16.1,-,N/A,,Overcast,180,2013-04-26 21:35:00
4:55 PM,68.7,44.4,42,30.11,10.0,SSW,17.3,23.0,N/A,,Scattered Clouds,210,2013-04-26 21:55:00
5:15 PM,67.8,44.4,43,30.11,10.0,SSW,18.4,-,N/A,,Clear,200,2013-04-26 22:15:00
5:35 PM,67.6,44.6,43,30.11,10.0,South,16.1,23.0,N/A,,Clear,190,2013-04-26 22:35:00
5:55 PM,67.3,45.3,45,30.11,10.0,South,19.6,25.3,N/A,,Clear,190,2013-04-26 22:55:00
6:15 PM,66.7,45.0,45,30.12,10.0,SSW,17.3,-,N/A,,Clear,200,2013-04-26 23:15:00
6:35 PM,66.4,45.9,48,30.12,10.0,South,18.4,21.9,N/A,,Clear,190,2013-04-26 23:35:00
6:55 PM,65.3,45.9,49,30.13,10.0,SSW,16.1,20.7,N/A,,Clear,210,2013-04-26 23:55:00
7:15 PM,64.0,46.4,53,30.13,10.0,South,15.0,-,N/A,,Clear,190,2013-04-27 00:15:00
7:35 PM,62.6,46.9,57,30.13,10.0,South,13.8,-,N/A,,Clear,190,2013-04-27 00:35:00
7:55 PM,61.2,47.3,60,30.14,10.0,South,15.0,-,N/A,,Clear,190,2013-04-27 00:55:00
8:15 PM,59.0,47.7,66,30.14,10.0,South,16.1,-,N/A,,Clear,190,2013-04-27 01:15:00
8:35 PM,57.7,47.3,68,30.15,10.0,South,12.7,-,N/A,,Clear,190,2013-04-27 01:35:00
8:55 PM,56.3,47.3,72,30.16,10.0,South,11.5,-,N/A,,Clear,180,2013-04-27 01:55:00
9:15 PM,55.2,46.8,73,30.17,10.0,South,11.5,-,N/A,,Clear,190,2013-04-27 02:15:00
9:35 PM,54.5,46.9,76,30.17,10.0,South,11.5,-,N/A,,Clear,180,2013-04-27 02:35:00
9:55 PM,53.8,46.8,77,30.18,10.0,South,10.4,-,N/A,,Clear,190,2013-04-27 02:55:00
10:15 PM,53.6,46.9,78,30.19,10.0,South,10.4,-,N/A,,Clear,190,2013-04-27 03:15:00
10:35 PM,52.7,46.8,80,30.19,10.0,SSW,10.4,-,N/A,,Clear,200,2013-04-27 03:35:00
10:55 PM,52.2,46.6,81,30.19,10.0,SSW,12.7,-,N/A,,Clear,200,2013-04-27 03:55:00
11:15 PM,51.8,46.4,82,30.20,10.0,SSW,9.2,-,N/A,,Clear,210,2013-04-27 04:15:00
11:35 PM,50.7,46.0,84,30.21,10.0,SSW,8.1,-,N/A,,Clear,210,2013-04-27 04:35:00
11:55 PM,50.0,45.9,86,30.20,10.0,SSW,9.2,-,N/A,,Clear,200,2013-04-27 04:55:00